This is the latest recevied weather packets stored in our database for station/object KO4RJX-10. If no packets are shown the sender has not sent any weather packets the latest 10 day(s).
| Time | Temp. | Humidity | Pressure | Rain* | Wind** | Luminosity | Snow |
|---|---|---|---|---|---|---|---|
| 1777775384 | 10° C | 100% | 1006.8 hPa | 19.56 mm | - | - | - |
| 1777774984 | 10° C | 100% | 1007.1 hPa | 19.56 mm | - | - | - |
| 1777773784 | 10° C | 100% | 1006.8 hPa | 19.56 mm | - | - | - |
| 1777772584 | 10° C | 100% | 1006.8 hPa | 19.56 mm | - | - | - |
| 1777770984 | 10° C | 100% | 1006.1 hPa | 19.56 mm | - | - | - |
| 1777770584 | 10.56° C | 100% | 1006.1 hPa | 19.56 mm | - | - | - |
| 1777767784 | 10.56° C | 99% | 1005.4 hPa | 19.56 mm | - | - | - |
| 1777765917 | 11.11° C | 92% | 1005.1 hPa | 19.56 mm | - | - | - |
| 1777764584 | 11.11° C | 94% | 1005.1 hPa | 19.56 mm | - | - | - |
| 1777762984 | 11.11° C | 88% | 1005.1 hPa | 19.56 mm | - | - | - |
| 1777762584 | 11.11° C | 89% | 1005.1 hPa | 19.56 mm | - | - | - |
| 1777760184 | 11.11° C | 88% | 1004.7 hPa | 19.56 mm | - | - | - |
| 1777759517 | 11.11° C | 86% | 1004.7 hPa | 19.56 mm | - | - | - |
| 1777756584 | 11.67° C | 88% | 1004.7 hPa | 19.56 mm | - | - | - |
| 1777752585 | 11.67° C | 91% | 1004.7 hPa | 19.3 mm | - | - | - |
| 1777752185 | 11.67° C | 88% | 1004.7 hPa | 19.3 mm | - | - | - |
| 1777751784 | 11.67° C | 90% | 1004.7 hPa | 19.3 mm | - | - | - |
| 1777750986 | 11.67° C | 93% | 1004.7 hPa | 19.3 mm | - | - | - |
| 1777750716 | 11.11° C | 93% | 1004.7 hPa | 19.3 mm | - | - | - |
| 1777748584 | 11.67° C | 90% | 1005.1 hPa | 18.54 mm | - | - | - |
| 1777746984 | 11.11° C | 91% | 1005.1 hPa | 18.29 mm | - | - | - |
| 1777745384 | 11.11° C | 91% | 1005.1 hPa | 17.78 mm | - | - | - |
| 1777744584 | 11.11° C | 90% | 1005.8 hPa | 17.53 mm | - | - | - |
| 1777744184 | 11.11° C | 89% | 1005.4 hPa | 17.27 mm | - | - | - |
| 1777742584 | 11.11° C | 90% | 1005.4 hPa | 17.27 mm | - | - | - |
* Rain since midnight (hover to see other rain measurements)
** Current wind speed in m/s (hover to see current wind gust speed)